SCP
0 0 0 0 0 0 0 0 0 0 -0 -0 0 0 0 -0 0 0 -0 0 -0 -0 -0 -0 -0 -0 -0 -0 -0 -0 -0 0
0 0 0 0 0 0 0 -0 -0 0 0 -0 -0 0 0 0 0 0 0 0 -0 -0 -0 0 -0 -0 -0 -0 -1 -1 -1 -0
0 0 0 0 0 0 0 0 0 0 0 -0 -0 -0 0 0 0 0 0 0 0 0 0 -0 -0 -0 -0 -0 -0 -0 -1 -0
0 0 0 0 0 0 0 0 0 0 0 0 -0 -0 0 0 0 0 0 0 0 0 0 0 0 -0 -0 -0 -0 -1 -0 -0
0 0 0 0 0 0 0 0 -0 0 0 0 0 -0 -0 0 0 0 0 0 0 0 0 0 0 0 -0 -0 -0 -0 -0 -0
0 0 0 0 0 0 0 0 0 -0 -0 0 0 0 0 0 0 0 0 -0 -0 0 0 0 0 0 0 0 0 0 0 -0
0 0 0 0 0 0 0 0 -0 -0 -0 -0 0 0 0 0 0 0 0 0 0 0 0 1 1 1 0 0 0 0 0 0
0 0 0 0 0 0 0 0 0 0 -0 0 0 0 -0 -0 0 0 0 0 0 0 0 0 1 1 0 0 0 0 1 -0
0 0 0 0 0 0 0 0 0 0 0 0 -0 0 0 0 0 0 -0 0 0 0 0 1 1 1 0 0 0 1 1 1
0 0 0 0 0 0 0 0 0 0 0 0 0 -0 0 0 0 0 0 0 0 0 0 0 0 0 1 1 1 1 1 2
0 0 0 0 0 0 0 0 0 0 0 0 0 0 0 0 0 0 0 0 0 0 0 0 0 0 1 1 1 1 1 0
0 0 0 0 0 0 0 0 0 0 0 0 0 0 0 0 0 0 0 0 0 0 0 0 0 0 1 1 1 1 1 0
0 0 0 0 0 0 0 0 0 0 0 0 0 0 0 -0 0 0 0 0 0 0 0 0 0 0 0 1 1 0 1 1
0 0 -0 0 0 0 0 0 0 0 0 0 -0 -0 0 -0 -0 -0 0 0 0 0 0 0 0 1 1 1 1 2 2 2
0 0 0 0 0 0 0 0 0 0 0 0 0 -0 -0 -0 0 0 1 1 0 1 2 2 1 1 1 2 3 2 1 1
0 0 0 0 0 0 0 0 -0 -0 0 0 0 -0 -0 -0 -0 1 1 2 3 4 4 3 2 2 2 1 1 2 2 2
0 0 0 0 0 0 0 0 0 0 -0 -0 -0 -1 -0 -0 1 2 3 4 4 4 5 5 5 3 5 3 1 2 2 2
-0 0 0 0 0 0 0 0 -0 -0 0 -0 -1 -0 -0 2 3 4 3 4 4 3 3 3 3 4 3 3 2 1 1 1
-0 0 0 0 -0 0 0 -0 0 0 0 0 0 1 1 1 1 1 2 2 2 2 2 2 2 2 2 1 1 1 1 0
Wind_Speed_500mb
39 29 42 34 48 46 21 3 8 25 29 21 19 40 36 49 45 51 67 75 83 87 93 102 102 100 94 94 93 92 90 89
52 35 48 31 36 23 27 27 24 17 23 25 39 36 41 37 46 55 59 65 72 79 89 101 105 106 103 97 93 93 90 88
32 44 46 21 38 23 22 19 17 16 18 20 32 40 42 44 58 56 58 65 70 79 89 98 98 100 108 107 101 97 95 90
33 25 42 49 37 46 23 26 27 12 15 3 23 23 34 49 56 57 60 64 67 68 73 72 91 98 107 108 106 104 101 96
14 23 18 44 44 46 42 22 36 24 11 16 13 11 21 28 38 36 44 44 52 48 61 78 88 96 101 100 101 100 102 105
25 12 6 10 21 50 50 34 33 41 32 21 11 17 24 35 44 33 37 34 46 54 59 68 80 89 94 96 92 92 95 97
10 14 12 18 20 21 33 44 46 44 49 39 33 28 23 29 25 32 37 29 43 49 50 60 71 83 87 88 94 93 93 93
15 19 20 27 27 27 28 33 32 43 50 15 29 53 55 56 56 41 49 49 48 52 49 50 64 76 80 86 92 94 95 92
12 14 25 31 43 34 29 26 30 43 36 28 34 26 38 54 59 58 48 45 43 44 44 42 44 53 72 81 88 95 96 93
9 5 19 20 7 12 26 34 41 45 38 31 34 49 56 71 65 68 78 76 76 75 73 68 61 60 59 73 82 89 92 92
10 24 32 35 14 7 9 26 13 33 42 38 49 54 52 54 70 92 94 90 84 76 64 67 67 66 68 73 79 81 83 87
11 16 24 4 19 28 9 30 13 6 14 28 42 30 23 49 73 87 90 89 80 69 65 48 52 60 66 72 76 76 75 81
28 21 17 21 12 2 23 2 10 11 19 28 22 32 45 58 53 68 61 57 55 56 53 52 50 49 57 63 69 60 63 70
23 20 41 16 29 22 10 16 27 35 35 39 43 58 57 73 63 53 52 46 48 52 50 48 38 37 51 59 57 63 63 61
18 15 28 27 38 63 50 46 53 47 57 47 58 61 58 53 40 39 36 39 43 45 41 39 38 33 42 49 51 48 39 38
24 33 44 65 78 65 56 56 54 49 59 56 65 64 59 46 37 36 32 32 31 35 35 27 23 24 23 24 23 24 25 25
30 39 50 67 68 81 68 61 66 58 55 65 56 63 48 37 38 37 37 39 39 39 48 47 40 35 30 23 16 15 22 23
26 31 33 44 38 35 55 63 61 45 68 50 42 33 36 46 49 51 50 50 52 49 50 50 41 37 32 27 22 16 14 14
44 55 58 65 59 71 63 60 55 59 44 23 27 36 50 62 61 57 53 48 49 46 41 39 36 31 27 24 23 20 14 15
Wind_Direction_500mb
177 188 183 185 210 210 244 128 249 224 246 261 234 219 215 217 216 213 213 215 218 220 224 232 235 235 233 232 232 231 230 232
192 180 197 190 174 180 213 227 233 212 240 239 194 206 215 213 212 217 218 219 222 222 221 230 235 238 239 236 236 234 232 231
170 201 185 183 192 203 205 223 226 243 239 209 215 209 205 212 217 216 216 221 222 223 227 230 230 233 239 239 235 236 236 235
205 192 209 200 192 197 204 196 226 269 248 260 228 221 222 221 220 222 218 224 228 226 227 222 224 226 236 239 240 237 235 236
212 210 202 219 212 203 218 236 213 212 195 234 243 232 212 229 245 238 238 235 229 228 221 226 230 228 231 235 238 241 237 235
219 213 28 218 216 212 219 228 225 226 236 227 277 241 258 256 259 252 238 231 233 235 237 241 236 234 234 236 235 236 237 236
307 303 301 267 258 236 232 238 233 241 238 232 254 279 290 290 283 271 263 244 236 232 237 241 239 236 237 239 234 231 234 237
300 293 285 277 256 252 247 245 253 257 260 287 260 241 248 261 279 274 277 262 252 249 250 243 241 239 237 236 235 233 235 238
252 312 312 272 245 244 245 238 236 242 249 251 248 236 247 252 247 255 264 271 260 245 251 256 258 251 239 238 235 235 235 240
267 250 242 255 310 264 261 254 233 245 252 249 248 248 239 253 251 257 259 263 265 269 271 267 263 252 247 238 238 239 239 238
228 227 278 294 252 254 248 256 284 265 250 242 251 258 254 244 248 252 257 261 262 267 273 271 260 255 243 235 237 240 242 243
191 241 238 237 245 264 235 267 193 334 287 268 258 249 253 254 253 255 255 258 262 259 265 254 246 250 242 236 235 238 241 245
227 246 256 270 280 11 215 185 326 291 294 294 273 261 263 274 266 263 263 255 253 248 252 255 251 241 237 233 234 243 248 249
224 243 241 250 263 243 338 316 311 309 305 293 281 279 273 269 272 273 268 245 235 233 244 246 241 235 229 229 235 239 245 252
222 225 258 282 292 293 296 296 300 303 300 298 294 279 277 277 274 252 234 231 228 225 223 225 230 228 227 228 230 237 245 250
251 250 262 271 281 280 284 291 296 294 288 291 283 279 272 263 235 227 212 202 190 187 184 177 184 188 192 205 215 223 236 241
273 267 270 271 268 272 284 274 279 289 281 286 279 273 255 222 208 188 173 164 158 145 133 124 120 119 117 119 135 187 205 208
247 263 271 271 287 292 279 270 264 270 283 273 254 233 192 172 162 153 146 142 134 123 118 116 116 114 115 115 115 129 150 163
249 267 263 269 289 282 279 268 257 262 258 195 172 165 145 137 131 128 126 123 117 113 110 111 111 114 114 117 124 132 148 156
Wind_Speed_850mb
39 29 42 34 48 46 21 3 8 25 29 21 19 40 36 49 45 51 67 75 83 87 93 102 102 100 94 94 93 92 90 89
52 35 48 31 36 23 27 27 24 17 23 25 39 36 41 37 46 55 59 65 72 79 89 101 105 106 103 97 93 93 90 88
32 44 46 21 38 23 22 19 17 16 18 20 32 40 42 44 58 56 58 65 70 79 89 98 98 100 108 107 101 97 95 90
33 25 42 49 37 46 23 26 27 12 15 3 23 23 34 49 56 57 60 64 67 68 73 72 91 98 107 108 106 104 101 96
14 23 18 44 44 46 42 22 36 24 11 16 13 11 21 28 38 36 44 44 52 48 61 78 88 96 101 100 101 100 102 105
25 12 6 10 21 50 50 34 33 41 32 21 11 17 24 35 44 33 37 34 46 54 59 68 80 89 94 96 92 92 95 97
10 14 12 18 20 21 33 44 46 44 49 39 33 28 23 29 25 32 37 29 43 49 50 60 71 83 87 88 94 93 93 93
15 19 20 27 27 27 28 33 32 43 50 15 29 53 55 56 56 41 49 49 48 52 49 50 64 76 80 86 92 94 95 92
12 14 25 31 43 34 29 26 30 43 36 28 34 26 38 54 59 58 48 45 43 44 44 42 44 53 72 81 88 95 96 93
9 5 19 20 7 12 26 34 41 45 38 31 34 49 56 71 65 68 78 76 76 75 73 68 61 60 59 73 82 89 92 92
10 24 32 35 14 7 9 26 13 33 42 38 49 54 52 54 70 92 94 90 84 76 64 67 67 66 68 73 79 81 83 87
11 16 24 4 19 28 9 30 13 6 14 28 42 30 23 49 73 87 90 89 80 69 65 48 52 60 66 72 76 76 75 81
28 21 17 21 12 2 23 2 10 11 19 28 22 32 45 58 53 68 61 57 55 56 53 52 50 49 57 63 69 60 63 70
23 20 41 16 29 22 10 16 27 35 35 39 43 58 57 73 63 53 52 46 48 52 50 48 38 37 51 59 57 63 63 61
18 15 28 27 38 63 50 46 53 47 57 47 58 61 58 53 40 39 36 39 43 45 41 39 38 33 42 49 51 48 39 38
24 33 44 65 78 65 56 56 54 49 59 56 65 64 59 46 37 36 32 32 31 35 35 27 23 24 23 24 23 24 25 25
30 39 50 67 68 81 68 61 66 58 55 65 56 63 48 37 38 37 37 39 39 39 48 47 40 35 30 23 16 15 22 23
26 31 33 44 38 35 55 63 61 45 68 50 42 33 36 46 49 51 50 50 52 49 50 50 41 37 32 27 22 16 14 14
44 55 58 65 59 71 63 60 55 59 44 23 27 36 50 62 61 57 53 48 49 46 41 39 36 31 27 24 23 20 14 15
Wind_Direction_850mb
177 188 183 185 210 210 244 128 249 224 246 261 234 219 215 217 216 213 213 215 218 220 224 232 235 235 233 232 232 231 230 232
192 180 197 190 174 180 213 227 233 212 240 239 194 206 215 213 212 217 218 219 222 222 221 230 235 238 239 236 236 234 232 231
170 201 185 183 192 203 205 223 226 243 239 209 215 209 205 212 217 216 216 221 222 223 227 230 230 233 239 239 235 236 236 235
205 192 209 200 192 197 204 196 226 269 248 260 228 221 222 221 220 222 218 224 228 226 227 222 224 226 236 239 240 237 235 236
212 210 202 219 212 203 218 236 213 212 195 234 243 232 212 229 245 238 238 235 229 228 221 226 230 228 231 235 238 241 237 235
219 213 28 218 216 212 219 228 225 226 236 227 277 241 258 256 259 252 238 231 233 235 237 241 236 234 234 236 235 236 237 236
307 303 301 267 258 236 232 238 233 241 238 232 254 279 290 290 283 271 263 244 236 232 237 241 239 236 237 239 234 231 234 237
300 293 285 277 256 252 247 245 253 257 260 287 260 241 248 261 279 274 277 262 252 249 250 243 241 239 237 236 235 233 235 238
252 312 312 272 245 244 245 238 236 242 249 251 248 236 247 252 247 255 264 271 260 245 251 256 258 251 239 238 235 235 235 240
267 250 242 255 310 264 261 254 233 245 252 249 248 248 239 253 251 257 259 263 265 269 271 267 263 252 247 238 238 239 239 238
228 227 278 294 252 254 248 256 284 265 250 242 251 258 254 244 248 252 257 261 262 267 273 271 260 255 243 235 237 240 242 243
191 241 238 237 245 264 235 267 193 334 287 268 258 249 253 254 253 255 255 258 262 259 265 254 246 250 242 236 235 238 241 245
227 246 256 270 280 11 215 185 326 291 294 294 273 261 263 274 266 263 263 255 253 248 252 255 251 241 237 233 234 243 248 249
224 243 241 250 263 243 338 316 311 309 305 293 281 279 273 269 272 273 268 245 235 233 244 246 241 235 229 229 235 239 245 252
222 225 258 282 292 293 296 296 300 303 300 298 294 279 277 277 274 252 234 231 228 225 223 225 230 228 227 228 230 237 245 250
251 250 262 271 281 280 284 291 296 294 288 291 283 279 272 263 235 227 212 202 190 187 184 177 184 188 192 205 215 223 236 241
273 267 270 271 268 272 284 274 279 289 281 286 279 273 255 222 208 188 173 164 158 145 133 124 120 119 117 119 135 187 205 208
247 263 271 271 287 292 279 270 264 270 283 273 254 233 192 172 162 153 146 142 134 123 118 116 116 114 115 115 115 129 150 163
249 267 263 269 289 282 279 268 257 262 258 195 172 165 145 137 131 128 126 123 117 113 110 111 111 114 114 117 124 132 148 156